Total_Precipitation_Accumulation
2.02 2.36 2.44 2.38 2.35 2.43 2.25 2.20 2.31 2.32 2.30 2.39 2.43 2.43 2.41 2.56 2.80 3.03 2.95 3.09 3.21 3.23 3.20 3.12 3.02 3.08 3.28 3.20 3.33 3.50 3.77 4.04 3.68 3.19 3.03 3.02 3.13 3.03 2.84 2.47 2.18 2.05 1.88
2.30 2.67 2.77 2.55 2.34 2.19 1.99 1.98 2.14 2.30 2.34 2.36 2.39 2.38 2.31 2.42 2.71 2.86 2.97 3.26 3.39 3.25 3.15 3.15 2.99 3.12 3.22 3.20 3.28 3.25 3.37 3.74 3.61 3.31 3.21 3.26 3.20 3.06 2.96 2.74 2.31 2.08 2.08
2.15 2.55 2.52 2.27 2.05 2.00 1.99 2.02 2.16 2.35 2.36 2.33 2.36 2.38 2.47 2.64 2.83 2.94 3.05 3.22 3.19 3.08 3.13 3.06 2.92 3.04 2.92 2.99 3.03 3.03 3.03 3.18 3.40 3.27 3.11 3.21 3.13 3.01 2.99 2.84 2.70 2.77 2.48
1.73 2.14 2.08 1.88 1.82 1.85 1.89 1.95 1.98 2.10 2.15 2.20 2.35 2.52 2.64 2.81 2.93 2.97 3.02 3.01 2.98 2.83 2.74 2.67 2.70 2.86 2.95 2.97 2.87 2.83 2.91 3.07 3.19 3.23 3.15 3.23 3.25 3.28 3.21 3.08 3.07 2.99 2.77
1.64 1.97 1.96 1.82 1.81 1.77 1.76 1.89 1.97 2.03 2.05 2.29 2.44 2.52 2.56 2.59 2.65 2.85 2.83 2.73 2.73 2.58 2.45 2.29 2.33 2.68 2.84 2.83 2.62 2.76 2.87 2.92 2.99 3.13 3.14 3.22 3.31 3.56 3.37 3.12 3.04 3.13 2.96
1.57 1.90 1.89 1.77 1.71 1.63 1.70 1.84 1.97 2.05 2.23 2.41 2.41 2.40 2.35 1.98 2.10 2.28 2.30 2.30 2.34 2.32 2.19 2.15 2.14 2.23 2.27 2.33 2.35 2.40 2.49 2.58 2.80 3.13 3.19 3.15 3.11 3.22 3.38 3.36 3.31 3.24 3.12
1.65 1.91 1.98 1.89 1.81 1.77 1.69 1.86 2.05 2.27 2.46 2.55 2.49 2.43 2.26 2.13 2.02 1.91 1.90 1.96 2.11 2.14 2.16 2.24 1.92 1.74 1.95 1.97 2.15 2.16 2.09 2.20 2.37 2.67 2.87 2.86 2.99 3.03 3.38 3.41 3.48 3.48 3.39
1.67 1.93 2.06 2.00 1.96 2.03 2.03 2.10 2.29 2.53 2.71 2.73 2.68 2.57 2.44 2.29 2.18 1.99 1.99 1.91 2.00 2.03 2.05 2.10 2.04 1.92 1.91 2.06 2.17 2.11 1.95 1.92 1.94 1.92 2.13 2.45 2.75 3.07 3.20 3.30 3.46 3.54 3.53
1.61 1.89 2.09 2.15 2.18 2.15 2.20 2.46 2.68 2.84 2.87 2.82 2.89 2.80 2.66 2.60 2.40 2.05 1.88 1.79 1.95 1.99 1.99 1.94 1.90 1.83 1.97 1.90 1.85 1.84 1.86 1.85 1.75 1.76 1.82 2.05 2.32 2.45 2.69 2.97 3.21 3.23 3.12
1.94 2.10 2.38 2.58 2.71 2.74 2.80 2.88 2.94 3.05 3.00 3.01 2.92 2.86 2.75 2.69 2.61 2.07 1.80 1.71 1.89 1.93 1.98 1.93 1.83 1.68 1.72 1.66 1.58 1.71 1.72 1.74 1.86 1.82 1.69 1.68 1.76 1.97 2.13 2.20 2.55 2.81 2.68
2.36 2.44 2.70 3.05 3.23 3.19 3.22 3.12 3.04 3.03 3.03 3.03 2.91 2.81 2.74 2.65 2.56 2.11 1.92 1.87 1.98 2.07 2.01 1.92 1.85 1.76 1.57 1.55 1.50 1.52 1.61 1.68 1.80 1.87 1.81 1.71 1.81 1.96 1.93 1.92 2.14 2.45 2.55
2.66 2.96 3.20 3.38 3.21 3.11 3.30 3.20 3.21 3.27 3.23 3.11 3.02 2.92 2.96 2.85 2.59 2.27 2.05 2.02 2.08 2.14 2.16 2.11 2.03 1.85 1.62 1.56 1.46 1.43 1.46 1.39 1.38 1.56 1.63 1.58 1.63 1.74 1.82 1.84 1.95 2.08 2.23
2.84 3.06 3.14 3.20 3.31 3.45 3.53 3.41 3.35 3.34 3.26 3.07 2.98 2.82 2.77 2.87 2.86 2.44 2.13 2.12 2.14 2.04 2.16 2.28 2.06 1.82 1.65 1.46 1.46 1.50 1.41 1.28 1.34 1.41 1.42 1.43 1.44 1.56 1.81 2.02 2.13 2.23 2.23
2.71 2.75 2.87 3.05 3.18 3.30 3.54 3.54 3.41 3.23 3.13 3.03 2.99 2.86 2.79 2.84 2.78 2.40 2.08 2.05 2.10 2.02 2.04 2.15 2.04 1.86 1.69 1.55 1.50 1.48 1.38 1.40 1.51 1.49 1.50 1.57 1.62 1.71 1.84 1.94 2.11 2.29 2.31
2.81 2.73 2.65 2.68 2.81 2.96 3.09 3.18 3.11 3.08 2.97 2.84 2.66 2.60 2.57 2.57 2.58 2.35 2.10 2.04 2.16 2.25 2.23 2.18 2.12 1.98 1.83 1.71 1.66 1.68 1.71 1.72 1.69 1.70 1.75 1.76 1.76 1.80 1.88 1.98 2.10 2.21 2.18
2.76 2.65 2.59 2.54 2.61 2.66 2.67 2.64 2.52 2.43 2.31 2.14 2.06 2.00 1.96 2.03 2.22 2.09 1.95 2.00 2.20 2.35 2.22 2.09 2.18 2.12 1.97 1.88 1.85 1.84 1.85 1.81 1.80 1.87 1.86 1.85 1.83 1.86 1.91 1.97 2.03 2.02 2.02
2.67 2.51 2.36 2.25 2.27 2.26 2.31 2.47 2.54 2.32 2.13 1.92 1.81 1.69 1.65 1.77 1.88 1.91 1.88 1.92 2.04 2.05 1.86 1.87 1.99 2.01 1.91 1.87 1.84 1.81 1.76 1.82 1.91 1.87 1.85 1.88 1.89 1.88 1.96 2.02 2.07 2.11 2.06
2.49 2.49 2.37 2.24 2.22 2.21 2.29 2.39 2.53 2.52 2.24 1.87 1.78 1.71 1.53 1.49 1.53 1.61 1.71 1.72 1.71 1.70 1.63 1.70 1.76 1.83 1.85 1.86 1.88 1.89 1.82 1.84 1.86 1.86 1.85 1.88 1.92 1.91 1.96 1.99 1.97 2.03 2.13
2.29 2.25 2.22 2.28 2.25 2.22 2.35 2.39 2.38 2.43 2.30 2.09 1.84 1.65 1.55 1.41 1.45 1.57 1.52 1.42 1.50 1.53 1.50 1.55 1.60 1.62 1.66 1.72 1.73 1.80 1.82 1.79 1.80 1.84 1.81 1.83 1.88 1.90 1.94 1.95 1.94 2.02 2.08
2.23 2.16 2.05 2.03 2.01 1.98 2.04 2.14 2.18 2.30 2.29 2.20 2.03 1.74 1.53 1.43 1.44 1.52 1.46 1.50 1.63 1.62 1.54 1.55 1.53 1.54 1.58 1.65 1.72 1.79 1.82 1.84 1.89 1.89 1.87 1.89 1.94 1.97 1.98 2.01 2.03 2.05 2.04
2.17 2.01 1.77 1.61 1.65 1.76 1.91 2.03 2.06 2.12 2.23 2.18 1.96 1.72 1.51 1.33 1.42 1.54 1.59 1.60 1.58 1.56 1.50 1.49 1.47 1.46 1.50 1.60 1.69 1.76 1.82 1.89 1.89 1.92 1.98 1.96 1.90 1.89 1.89 1.96 1.98 2.03 2.09
2.05 1.91 1.69 1.54 1.57 1.66 1.78 1.97 2.04 2.00 1.98 1.97 1.86 1.67 1.55 1.35 1.39 1.47 1.49 1.49 1.47 1.50 1.48 1.46 1.40 1.40 1.44 1.55 1.69 1.75 1.80 1.82 1.84 1.87 1.87 1.89 1.90 1.89 1.90 1.98 2.01 2.01 2.04
1.94 1.87 1.74 1.66 1.71 1.76 1.80 1.85 1.86 1.83 1.79 1.72 1.66 1.57 1.50 1.47 1.46 1.51 1.51 1.46 1.46 1.43 1.44 1.44 1.38 1.37 1.43 1.54 1.63 1.69 1.72 1.68 1.66 1.69 1.79 1.87 1.89 1.90 1.97 2.03 1.97 1.95 1.95
1.71 1.74 1.69 1.64 1.67 1.72 1.70 1.73 1.68 1.67 1.63 1.58 1.52 1.51 1.50 1.53 1.52 1.49 1.49 1.47 1.43 1.34 1.29 1.31 1.33 1.34 1.37 1.38 1.36 1.37 1.38 1.42 1.42 1.46 1.56 1.70 1.79 1.89 1.99 2.01 1.96 1.91 2.01
1.59 1.66 1.68 1.69 1.69 1.70 1.72 1.75 1.68 1.61 1.59 1.58 1.57 1.55 1.53 1.52 1.48 1.49 1.47 1.41 1.34 1.34 1.33 1.35 1.35 1.28 1.21 1.22 1.21 1.19 1.31 1.33 1.28 1.31 1.42 1.61 1.71 1.84 1.99 2.04 2.02 2.03 2.15
1.47 1.51 1.56 1.58 1.60 1.61 1.63 1.67 1.67 1.59 1.54 1.47 1.45 1.45 1.37 1.35 1.36 1.33 1.29 1.26 1.29 1.31 1.29 1.26 1.26 1.25 1.22 1.20 1.22 1.31 1.33 1.29 1.31 1.42 1.38 1.40 1.54 1.66 1.77 1.85 1.82 1.91 2.03